TimeCST,TemperatureF,Dew PointF,Humidity,Sea Level PressureIn,VisibilityMPH,Wind Direction,Wind SpeedMPH,Gust SpeedMPH,PrecipitationIn,Events,Conditions,WindDirDegrees,DateUTC
12:15 AM,10.4,5.0,79,30.41,10.0,Calm,Calm,-,N/A,,Clear,0,2013-02-21 06:15:00
12:36 AM,10.4,5.0,79,30.41,10.0,Calm,Calm,-,N/A,,Clear,0,2013-02-21 06:36:00
12:56 AM,10.4,5.0,79,30.41,10.0,Calm,Calm,-,N/A,,Clear,0,2013-02-21 06:56:00
1:15 AM,10.4,3.2,73,30.41,10.0,West,3.5,-,N/A,,Clear,260,2013-02-21 07:15:00
1:36 AM,10.4,3.2,73,30.42,10.0,Calm,Calm,-,N/A,,Clear,0,2013-02-21 07:36:00
1:56 AM,8.6,3.2,79,30.42,10.0,Calm,Calm,-,N/A,,Clear,0,2013-02-21 07:56:00
2:15 AM,10.4,3.2,73,30.42,10.0,Calm,Calm,-,N/A,,Clear,0,2013-02-21 08:15:00
2:36 AM,8.6,3.2,79,30.42,10.0,Calm,Calm,-,N/A,,Clear,0,2013-02-21 08:36:00
2:56 AM,8.6,3.2,79,30.43,10.0,Calm,Calm,-,N/A,,Clear,0,2013-02-21 08:56:00
3:15 AM,8.6,3.2,79,30.43,10.0,Calm,Calm,-,N/A,,Clear,0,2013-02-21 09:15:00
3:35 AM,8.6,3.2,79,30.43,10.0,Calm,Calm,-,N/A,,Clear,0,2013-02-21 09:35:00
3:56 AM,8.6,3.2,79,30.44,10.0,Calm,Calm,-,N/A,,Clear,0,2013-02-21 09:56:00
4:15 AM,8.6,5.0,85,30.44,10.0,Calm,Calm,-,N/A,,Clear,0,2013-02-21 10:15:00
4:36 AM,5.0,1.4,85,30.44,10.0,Calm,Calm,-,N/A,,Clear,0,2013-02-21 10:36:00
4:56 AM,5.0,1.4,85,30.43,10.0,Calm,Calm,-,N/A,,Clear,0,2013-02-21 10:56:00
5:15 AM,5.0,1.4,85,30.41,10.0,Calm,Calm,-,N/A,,Clear,0,2013-02-21 11:15:00
5:56 AM,5.0,1.4,85,30.33,10.0,Calm,Calm,-,N/A,,Clear,0,2013-02-21 11:56:00
6:15 AM,8.6,3.2,79,30.32,10.0,East,8.1,-,N/A,,Clear,90,2013-02-21 12:15:00
6:35 AM,8.6,3.2,79,30.42,10.0,SSW,5.8,-,N/A,,Clear,210,2013-02-21 12:35:00
6:56 AM,10.4,5.0,79,30.44,10.0,Calm,Calm,-,N/A,,Clear,0,2013-02-21 12:56:00
7:15 AM,8.6,3.2,79,30.45,10.0,Calm,Calm,-,N/A,,Clear,0,2013-02-21 13:15:00
7:35 AM,8.6,3.2,79,30.44,10.0,NE,3.5,-,N/A,,Clear,50,2013-02-21 13:35:00
7:56 AM,10.4,5.0,79,30.44,10.0,Calm,Calm,-,N/A,,Clear,0,2013-02-21 13:56:00
8:15 AM,10.4,5.0,79,30.42,10.0,Calm,Calm,-,N/A,,Clear,0,2013-02-21 14:15:00
8:35 AM,12.2,5.0,73,30.43,10.0,Calm,Calm,-,N/A,,Clear,0,2013-02-21 14:35:00
8:56 AM,14.0,5.0,67,30.42,10.0,ESE,4.6,-,N/A,,Clear,120,2013-02-21 14:56:00
9:15 AM,14.0,5.0,67,30.41,10.0,ESE,6.9,-,N/A,,Clear,120,2013-02-21 15:15:00
9:35 AM,14.0,5.0,67,30.40,10.0,SE,6.9,-,N/A,,Clear,130,2013-02-21 15:35:00
9:56 AM,15.8,6.8,68,30.39,10.0,SE,9.2,-,N/A,,Clear,130,2013-02-21 15:56:00
10:15 AM,15.8,6.8,68,30.39,10.0,SE,15.0,-,N/A,,Clear,130,2013-02-21 16:15:00
10:35 AM,15.8,6.8,68,30.39,10.0,ESE,13.8,-,N/A,,Clear,120,2013-02-21 16:35:00
10:56 AM,15.8,6.8,68,30.39,10.0,SE,11.5,-,N/A,,Clear,130,2013-02-21 16:56:00
11:15 AM,17.6,6.8,63,30.39,10.0,SE,11.5,-,N/A,,Clear,130,2013-02-21 17:15:00
11:35 AM,17.6,8.6,68,30.40,10.0,SE,10.4,-,N/A,,Clear,140,2013-02-21 17:35:00
11:56 AM,19.4,8.6,63,30.37,10.0,ESE,9.2,-,N/A,,Clear,120,2013-02-21 17:56:00
12:15 PM,19.4,8.6,63,30.34,10.0,ESE,9.2,-,N/A,,Clear,120,2013-02-21 18:15:00
12:35 PM,19.4,8.6,63,30.35,10.0,SE,5.8,-,N/A,,Clear,140,2013-02-21 18:35:00
12:55 PM,19.4,8.6,63,30.32,10.0,ESE,5.8,-,N/A,,Clear,120,2013-02-21 18:55:00
1:15 PM,19.4,8.6,63,30.32,10.0,ENE,6.9,-,N/A,,Clear,70,2013-02-21 19:15:00
1:36 PM,21.2,8.6,58,30.30,10.0,East,5.8,-,N/A,,Clear,100,2013-02-21 19:36:00
1:55 PM,21.2,10.4,63,30.29,10.0,East,8.1,-,N/A,,Clear,100,2013-02-21 19:55:00
2:16 PM,21.2,8.6,58,30.28,10.0,East,6.9,-,N/A,,Clear,80,2013-02-21 20:16:00
2:35 PM,21.2,8.6,58,30.28,10.0,ENE,6.9,-,N/A,,Clear,60,2013-02-21 20:35:00
2:56 PM,21.2,8.6,58,30.28,10.0,ENE,6.9,-,N/A,,Clear,60,2013-02-21 20:56:00
3:16 PM,21.2,8.6,58,30.27,10.0,NE,6.9,-,N/A,,Clear,50,2013-02-21 21:16:00
3:35 PM,21.2,8.6,58,30.26,10.0,NE,4.6,-,N/A,,Clear,40,2013-02-21 21:35:00
3:56 PM,23.0,8.6,54,30.24,10.0,ENE,4.6,-,N/A,,Clear,70,2013-02-21 21:56:00
4:16 PM,23.0,10.4,59,30.23,10.0,East,5.8,-,N/A,,Clear,90,2013-02-21 22:16:00
4:35 PM,23.0,10.4,59,30.24,10.0,ESE,8.1,-,N/A,,Clear,110,2013-02-21 22:35:00
4:56 PM,23.0,10.4,59,30.22,10.0,East,9.2,-,N/A,,Clear,90,2013-02-21 22:56:00
5:16 PM,23.0,10.4,59,30.21,10.0,East,8.1,-,N/A,,Clear,90,2013-02-21 23:16:00
5:35 PM,21.2,10.4,63,30.20,10.0,East,10.4,-,N/A,,Clear,80,2013-02-21 23:35:00
5:55 PM,21.2,10.4,63,30.21,10.0,East,9.2,17.3,N/A,,Clear,80,2013-02-21 23:55:00
6:16 PM,21.2,10.4,63,30.19,10.0,East,10.4,-,N/A,,Clear,80,2013-02-22 00:16:00
6:35 PM,21.2,10.4,63,30.19,10.0,ENE,8.1,17.3,N/A,,Clear,70,2013-02-22 00:35:00
6:55 PM,21.2,10.4,63,30.18,10.0,East,9.2,16.1,N/A,,Clear,90,2013-02-22 00:55:00
7:16 PM,21.2,10.4,63,30.17,10.0,ENE,9.2,-,N/A,,Clear,70,2013-02-22 01:16:00
7:35 PM,21.2,12.2,68,30.16,10.0,East,8.1,-,N/A,,Clear,80,2013-02-22 01:35:00
7:55 PM,21.2,12.2,68,30.17,10.0,East,9.2,-,N/A,,Scattered Clouds,90,2013-02-22 01:55:00
8:16 PM,21.2,12.2,68,30.16,10.0,East,6.9,-,N/A,,Mostly Cloudy,100,2013-02-22 02:16:00
8:35 PM,21.2,12.2,68,30.14,10.0,East,6.9,-,N/A,,Overcast,80,2013-02-22 02:35:00
8:55 PM,21.2,12.2,68,30.13,10.0,East,8.1,-,N/A,,Overcast,100,2013-02-22 02:55:00
9:16 PM,21.2,14.0,74,30.12,10.0,East,8.1,16.1,N/A,,Overcast,100,2013-02-22 03:16:00
9:35 PM,21.2,14.0,74,30.12,10.0,East,4.6,-,N/A,,Overcast,100,2013-02-22 03:35:00
9:55 PM,21.2,14.0,74,30.11,10.0,ESE,5.8,-,N/A,,Overcast,110,2013-02-22 03:55:00
10:15 PM,21.2,14.0,74,30.10,10.0,East,4.6,-,N/A,,Overcast,90,2013-02-22 04:15:00
10:35 PM,21.2,15.8,80,30.09,10.0,East,9.2,-,N/A,,Overcast,90,2013-02-22 04:35:00
10:56 PM,23.0,15.8,74,30.09,10.0,East,10.4,19.6,N/A,,Overcast,100,2013-02-22 04:56:00
11:15 PM,23.0,15.8,74,30.08,10.0,East,10.4,-,N/A,,Overcast,90,2013-02-22 05:15:00
11:35 PM,23.0,17.6,80,30.07,1.8,East,10.4,-,N/A,Snow,Light Snow,100,2013-02-22 05:35:00